Location: Newark
(48.1236°N, 0.7169°W)
Time: 12:45:39
(UTC+00:00)

Envisat - Pass Details

Date: 21 November 2019
Orbit: 764 x 766 km, 98.1° (Epoch: 08 December)

Event Time Altitude Azimuth Distance (km) Brightness Sun altitude
Rises 17:41:53 0° 159° (SSE) 3,220 6.2 -13.6°
Reaches altitude 10° 17:44:10 10° 157° (SSE) 2,298 5.4 -14.0°
Maximum altitude 17:49:13 75° 73° (ENE) 798 2.9 -14.8°
Drops below altitude 10° 17:54:19 10° 349° (N) 2,314 5.5 -15.6°
Sets 17:56:38 0° 348° (NNW) 3,244 6.3 -16.0°
